,,Stat5,,Stat1,,Stat2,,Stat3,,Stat4,,Wind1,,Wind1,
time,status,PA1M_AVG,status,PR1M_SUM,status,RH1M_AVG,status,SR1M_AVG,status,TA1M_AVG,status,W1dAve1m,status,W1sAve1m,
2000-12-10, 00:00:00,VALID,916.934,VALID,0,VALID,96.9255,VALID,-0.101885,VALID,19.7889,VALID,139,VALID,0,
2000-12-10, 00:01:00,VALID,916.934,VALID,0,VALID,96.97,VALID,-0.101885,VALID,19.7825,VALID,145,VALID,0,
2000-12-10, 00:02:00,VALID,916.916,VALID,0,VALID,97.0501,VALID,-0.0679233,VALID,19.7924,VALID,146,VALID,0,
2000-12-10, 00:03:00,VALID,916.93,VALID,0,VALID,97.1074,VALID,-0.0849042,VALID,19.7793,VALID,158,VALID,0,
2000-12-10, 00:04:00,VALID,916.924,VALID,0,VALID,96.9967,VALID,-0.0849042,VALID,19.7733,VALID,172,VALID,0,
2000-12-10, 00:05:00,VALID,916.915,VALID,0,VALID,96.984,VALID,-0.101885,VALID,19.744,VALID,172,VALID,0,
2000-12-10, 00:06:00,VALID,916.911,VALID,0,VALID,96.9497,VALID,-0.101885,VALID,19.7412,VALID,172,VALID,0,
2000-12-10, 00:07:00,VALID,916.899,VALID,0,VALID,96.984,VALID,-0.101885,VALID,19.7248,VALID,172,VALID,0,
2000-12-10, 00:08:00,VALID,916.904,VALID,0,VALID,96.9484,VALID,-0.0849042,VALID,19.6955,VALID,172,VALID,0,
2000-12-10, 00:09:00,VALID,916.904,VALID,0,VALID,96.8556,VALID,-0.101885,VALID,19.6796,VALID,172,VALID,0,
2000-12-10, 00:10:00,VALID,916.907,VALID,0,VALID,96.8212,VALID,-0.0679233,VALID,19.6535,VALID,172,VALID,0,
2000-12-10, 00:11:00,VALID,916.902,VALID,0,VALID,96.9153,VALID,-0.101885,VALID,19.6411,VALID,172,VALID,0,
2000-12-10, 00:12:00,VALID,916.903,VALID,0,VALID,97.0489,VALID,-0.0849042,VALID,19.6512,VALID,173,VALID,0,
2000-12-10, 00:13:00,VALID,916.901,VALID,0,VALID,97.0234,VALID,-0.101885,VALID,19.6249,VALID,202,VALID,0,
2000-12-10, 00:14:00,VALID,916.898,VALID,0,VALID,97.396,VALID,-0.101885,VALID,19.6284,VALID,236,VALID,0,
2000-12-10, 00:15:00,VALID,916.9,VALID,0,VALID,97.5804,VALID,-0.0849042,VALID,19.6537,VALID,236,VALID,0,
2000-12-10, 00:16:00,VALID,916.899,VALID,0,VALID,97.6427,VALID,-0.0849042,VALID,19.657,VALID,236,VALID,0,
2000-12-10, 00:17:00,VALID,916.905,VALID,0,VALID,97.6732,VALID,-0.101885,VALID,19.6473,VALID,236,VALID,0,
2000-12-10, 00:18:00,VALID,916.904,VALID,0,VALID,97.6669,VALID,-0.101885,VALID,19.6406,VALID,236,VALID,0,
2000-12-10, 00:19:00,VALID,916.897,VALID,0,VALID,97.6287,VALID,-0.0849042,VALID,19.6411,VALID,236,VALID,0,
2000-12-10, 00:20:00,VALID,916.88,VALID,0,VALID,97.4507,VALID,-0.101885,VALID,19.6058,VALID,236,VALID,0,
2000-12-10, 00:21:00,VALID,916.876,VALID,0,VALID,96.8975,VALID,-0.0849042,VALID,19.5282,VALID,236,VALID,0,
2000-12-10, 00:22:00,VALID,916.87,VALID,0,VALID,96.7373,VALID,-0.0679233,VALID,19.4534,VALID,236,VALID,0,
2000-12-10, 00:23:00,VALID,916.868,VALID,0,VALID,96.7551,VALID,-0.0849042,VALID,19.4216,VALID,236,VALID,0,
2000-12-10, 00:24:00,VALID,916.865,VALID,0,VALID,97.1875,VALID,-0.0849042,VALID,19.4243,VALID,236,VALID,0,
2000-12-10, 00:25:00,VALID,916.865,VALID,0,VALID,97.6923,VALID,-0.101885,VALID,19.486,VALID,236,VALID,0,
2000-12-10, 00:26:00,VALID,916.868,VALID,0,VALID,97.7597,VALID,-0.101885,VALID,19.5347,VALID,232,VALID,0,
2000-12-10, 00:27:00,VALID,916.857,VALID,0,VALID,97.7546,VALID,-0.101885,VALID,19.5153,VALID,232,VALID,0,
2000-12-10, 00:28:00,VALID,916.848,VALID,0,VALID,97.5422,VALID,-0.0849042,VALID,19.486,VALID,232,VALID,0,
2000-12-10, 00:29:00,VALID,916.85,VALID,0,VALID,97.4024,VALID,-0.0849042,VALID,19.4368,VALID,232,VALID,0,
2000-12-10, 00:30:00,VALID,916.846,VALID,0,VALID,97.3846,VALID,-0.118866,VALID,19.4052,VALID,232,VALID,0,
2000-12-10, 00:31:00,VALID,916.836,VALID,0,VALID,97.3019,VALID,-0.0849042,VALID,19.389,VALID,232,VALID,0,
2000-12-10, 00:32:00,VALID,916.813,VALID,0,VALID,97.19,VALID,-0.101885,VALID,19.3498,VALID,232,VALID,0,
2000-12-10, 00:33:00,VALID,916.808,VALID,0,VALID,97.0094,VALID,-0.101885,VALID,19.3246,VALID,208,VALID,0,
2000-12-10, 00:34:00,VALID,916.787,VALID,0,VALID,96.942,VALID,-0.0169808,VALID,19.2946,VALID,167,VALID,0.669872,
2000-12-10, 00:35:00,VALID,916.776,VALID,0,VALID,97.0972,VALID,0.0169808,VALID,19.2909,VALID,167,VALID,0.591797,
2000-12-10, 00:36:00,VALID,916.764,VALID,0,VALID,97.0361,VALID,0.0169808,VALID,19.2489,VALID,167,VALID,0.348479,
2000-12-10, 00:37:00,VALID,916.764,VALID,0,VALID,96.8263,VALID,0.0169808,VALID,19.1972,VALID,167,VALID,0.0382813,
2000-12-10, 00:38:00,VALID,916.736,VALID,0,VALID,96.6458,VALID,0,VALID,19.1522,VALID,167,VALID,0,
2000-12-10, 00:39:00,VALID,916.734,VALID,0,VALID,96.7755,VALID,0.0509425,VALID,19.1291,VALID,167,VALID,0,
2000-12-10, 00:40:00,VALID,916.72,VALID,0,VALID,96.9242,VALID,0.0339617,VALID,19.1164,VALID,167,VALID,0,
2000-12-10, 00:41:00,VALID,916.699,VALID,0,VALID,97.04,VALID,-0.0169808,VALID,19.097,VALID,167,VALID,0,
2000-12-10, 00:42:00,VALID,916.681,VALID,0,VALID,97.2854,VALID,-0.0849042,VALID,19.1181,VALID,178,VALID,0.0735176,
2000-12-10, 00:43:00,VALID,916.663,VALID,0,VALID,97.5842,VALID,-0.0679233,VALID,19.1375,VALID,211,VALID,0.185156,
2000-12-10, 00:44:00,VALID,916.656,VALID,0,VALID,97.8779,VALID,-0.0849042,VALID,19.1922,VALID,213,VALID,0,
2000-12-10, 00:45:00,VALID,916.623,VALID,0,VALID,98.0165,VALID,-0.0509425,VALID,19.221,VALID,213,VALID,0,
2000-12-10, 00:46:00,VALID,916.613,VALID,0,VALID,98.0509,VALID,-0.0679233,VALID,19.2503,VALID,213,VALID,0,
2000-12-10, 00:47:00,VALID,916.59,VALID,0,VALID,98.0954,VALID,-0.0849042,VALID,19.2605,VALID,213,VALID,0,
2000-12-10, 00:48:00,VALID,916.584,VALID,0,VALID,98.1463,VALID,-0.0849042,VALID,19.27,VALID,213,VALID,0,
2000-12-10, 00:49:00,VALID,916.58,VALID,0,VALID,98.1908,VALID,-0.0509425,VALID,19.272,VALID,213,VALID,0,
2000-12-10, 00:50:00,VALID,916.591,VALID,0,VALID,98.2213,VALID,0.0169808,VALID,19.2881,VALID,213,VALID,0,
2000-12-10, 00:51:00,VALID,916.589,VALID,0,VALID,98.2734,VALID,0.0339617,VALID,19.2877,VALID,213,VALID,0,
2000-12-10, 00:52:00,VALID,916.61,VALID,0,VALID,98.3256,VALID,0,VALID,19.3239,VALID,213,VALID,0,
2000-12-10, 00:53:00,VALID,916.626,VALID,0,VALID,98.3472,VALID,0.0169808,VALID,19.314,VALID,213,VALID,0,
2000-12-10, 00:54:00,VALID,916.639,VALID,0,VALID,98.3891,VALID,0,VALID,19.3396,VALID,213,VALID,0,
2000-12-10, 00:55:00,VALID,916.636,VALID,0,VALID,98.4578,VALID,0,VALID,19.3788,VALID,213,VALID,0,
2000-12-10, 00:56:00,VALID,916.635,VALID,0,VALID,98.4972,VALID,0,VALID,19.4109,VALID,213,VALID,0,
2000-12-10, 00:57:00,VALID,916.625,VALID,0,VALID,98.4998,VALID,0.0509425,VALID,19.4271,VALID,213,VALID,0,
2000-12-10, 00:58:00,VALID,916.621,VALID,0,VALID,98.4349,VALID,0.0339617,VALID,19.3876,VALID,213,VALID,0,
2000-12-10, 00:59:00,VALID,916.605,VALID,0,VALID,98.4031,VALID,0.0509425,VALID,19.3744,VALID,213,VALID,0,
2000-12-10, 01:00:00,VALID,916.593,VALID,0,VALID,98.4514,VALID,0,VALID,19.4007,VALID,213,VALID,0,
2000-12-10, 01:01:00,VALID,916.614,VALID,0,VALID,98.365,VALID,0.0169808,VALID,19.3587,VALID,213,VALID,0,
2000-12-10, 01:02:00,VALID,916.613,VALID,0,VALID,97.972,VALID,0.0169808,VALID,19.2263,VALID,213,VALID,0,
2000-12-10, 01:03:00,VALID,916.607,VALID,0,VALID,97.6732,VALID,0.0169808,VALID,19.1164,VALID,213,VALID,0,
2000-12-10, 01:04:00,VALID,916.621,VALID,0,VALID,97.5499,VALID,0,VALID,19.0747,VALID,213,VALID,0,
2000-12-10, 01:05:00,VALID,916.63,VALID,0,VALID,97.5715,VALID,0.0169808,VALID,19.0488,VALID,213,VALID,0,
2000-12-10, 01:06:00,VALID,916.638,VALID,0,VALID,97.5791,VALID,0.0339617,VALID,19.0521,VALID,213,VALID,0,
2000-12-10, 01:07:00,VALID,916.639,VALID,0,VALID,97.6274,VALID,0.0169808,VALID,19.0553,VALID,213,VALID,0,
2000-12-10, 01:08:00,VALID,916.642,VALID,0,VALID,97.6961,VALID,0.0169808,VALID,19.0618,VALID,213,VALID,0,
2000-12-10, 01:09:00,VALID,916.639,VALID,0,VALID,97.7902,VALID,0.0339617,VALID,19.068,VALID,213,VALID,0,
2000-12-10, 01:10:00,VALID,916.634,VALID,0,VALID,97.9225,VALID,0.0169808,VALID,19.0911,VALID,213,VALID,0,
2000-12-10, 01:11:00,VALID,916.612,VALID,0,VALID,97.9848,VALID,0.0509425,VALID,19.0968,VALID,213,VALID,0,
2000-12-10, 01:12:00,VALID,916.586,VALID,0,VALID,97.9962,VALID,0.0339617,VALID,19.1204,VALID,213,VALID,0,
2000-12-10, 01:13:00,VALID,916.575,VALID,0,VALID,98.0216,VALID,0.0169808,VALID,19.1164,VALID,213,VALID,0,
2000-12-10, 01:14:00,VALID,916.538,VALID,0,VALID,98.117,VALID,0.0509425,VALID,19.1328,VALID,213,VALID,0,
2000-12-10, 01:15:00,VALID,916.526,VALID,0,VALID,98.0534,VALID,0,VALID,19.1234,VALID,213,VALID,0,
2000-12-10, 01:16:00,VALID,916.509,VALID,0,VALID,98.0801,VALID,0.0339617,VALID,19.1231,VALID,213,VALID,0,
2000-12-10, 01:17:00,VALID,916.507,VALID,0,VALID,98.0903,VALID,0.0169808,VALID,19.1331,VALID,213,VALID,0,
2000-12-10, 01:18:00,VALID,916.488,VALID,0,VALID,98.1552,VALID,0,VALID,19.143,VALID,213,VALID,0,
2000-12-10, 01:19:00,VALID,916.456,VALID,0,VALID,98.2264,VALID,0,VALID,19.1656,VALID,213,VALID,0,
2000-12-10, 01:20:00,VALID,916.438,VALID,0,VALID,98.3141,VALID,0,VALID,19.185,VALID,213,VALID,0,
2000-12-10, 01:21:00,VALID,916.424,VALID,0,VALID,98.4235,VALID,0.0339617,VALID,19.2235,VALID,213,VALID,0,
2000-12-10, 01:22:00,VALID,916.407,VALID,0,VALID,98.5048,VALID,0.0169808,VALID,19.2524,VALID,213,VALID,0,
2000-12-10, 01:23:00,VALID,916.406,VALID,0,VALID,98.6142,VALID,0.0339617,VALID,19.2914,VALID,213,VALID,0,
2000-12-10, 01:24:00,VALID,916.392,VALID,0,VALID,98.6346,VALID,0.0169808,VALID,19.3366,VALID,213,VALID,0,
2000-12-10, 01:25:00,VALID,916.401,VALID,0,VALID,98.6816,VALID,0,VALID,19.3622,VALID,213,VALID,0,
2000-12-10, 01:26:00,VALID,916.389,VALID,0,VALID,98.6969,VALID,0.0169808,VALID,19.4079,VALID,213,VALID,0,
2000-12-10, 01:27:00,VALID,916.389,VALID,0,VALID,98.6765,VALID,0,VALID,19.4308,VALID,213,VALID,0,
2000-12-10, 01:28:00,VALID,916.366,VALID,0,VALID,98.5811,VALID,0,VALID,19.3913,VALID,213,VALID,0,
2000-12-10, 01:29:00,VALID,916.348,VALID,0,VALID,98.5875,VALID,0,VALID,19.3729,VALID,213,VALID,0.0652344,
2000-12-10, 01:30:00,VALID,916.323,VALID,0,VALID,98.6244,VALID,0.0169808,VALID,19.356,VALID,213,VALID,0.0536859,
2000-12-10, 01:31:00,VALID,916.305,VALID,0,VALID,98.6549,VALID,0,VALID,19.3632,VALID,213,VALID,0,
2000-12-10, 01:32:00,VALID,916.276,VALID,0,VALID,98.7159,VALID,0,VALID,19.3592,VALID,212,VALID,0,
2000-12-10, 01:33:00,VALID,916.246,VALID,0,VALID,98.7859,VALID,0,VALID,19.4114,VALID,215,VALID,0,
2000-12-10, 01:34:00,VALID,916.23,VALID,0,VALID,98.7681,VALID,-0.0339617,VALID,19.4116,VALID,215,VALID,0,
2000-12-10, 01:35:00,VALID,916.212,VALID,0,VALID,98.7159,VALID,0.0169808,VALID,19.3918,VALID,225,VALID,0,
2000-12-10, 01:36:00,VALID,916.196,VALID,0,VALID,98.6358,VALID,0,VALID,19.3396,VALID,224,VALID,0,
2000-12-10, 01:37:00,VALID,916.192,VALID,0,VALID,98.4324,VALID,0,VALID,19.2009,VALID,224,VALID,0,
2000-12-10, 01:38:00,VALID,916.17,VALID,0,VALID,98.2887,VALID,0.0169808,VALID,19.0821,VALID,224,VALID,0,
2000-12-10, 01:39:00,VALID,916.15,VALID,0,VALID,98.3573,VALID,0,VALID,19.0428,VALID,210,VALID,0,
2000-12-10, 01:40:00,VALID,916.131,VALID,0,VALID,98.4286,VALID,0,VALID,19.0232,VALID,203,VALID,0,
2000-12-10, 01:41:00,VALID,916.104,VALID,0,VALID,98.3573,VALID,0,VALID,18.975,VALID,181,VALID,0,
2000-12-10, 01:42:00,VALID,916.092,VALID,0,VALID,98.1691,VALID,0.0169808,VALID,18.8746,VALID,141,VALID,0,
2000-12-10, 01:43:00,VALID,916.075,VALID,0,VALID,98.0801,VALID,0.0169808,VALID,18.7683,VALID,135,VALID,0,
2000-12-10, 01:44:00,VALID,916.049,VALID,0,VALID,98.4629,VALID,0,VALID,18.8006,VALID,137,VALID,0,
2000-12-10, 01:45:00,VALID,916.038,VALID,0,VALID,98.7693,VALID,0.0169808,VALID,18.9265,VALID,140,VALID,0,
2000-12-10, 01:46:00,VALID,916.013,VALID,0,VALID,98.8227,VALID,0,VALID,18.9879,VALID,140,VALID,0,
2000-12-10, 01:47:00,VALID,915.994,VALID,0,VALID,98.7541,VALID,0.0169808,VALID,18.9651,VALID,140,VALID,0,
2000-12-10, 01:48:00,VALID,915.976,VALID,0,VALID,98.6689,VALID,0.0169808,VALID,18.8903,VALID,141,VALID,0,
2000-12-10, 01:49:00,VALID,915.947,VALID,0,VALID,98.6727,VALID,0,VALID,18.8518,VALID,141,VALID,0,
2000-12-10, 01:50:00,VALID,915.939,VALID,0,VALID,98.7388,VALID,-0.0169808,VALID,18.852,VALID,141,VALID,0,
2000-12-10, 01:51:00,VALID,915.922,VALID,0,VALID,98.796,VALID,0,VALID,18.8776,VALID,141,VALID,0,
2000-12-10, 01:52:00,VALID,915.923,VALID,0,VALID,98.8952,VALID,0.0169808,VALID,18.9169,VALID,141,VALID,0,
2000-12-10, 01:53:00,VALID,915.923,VALID,0,VALID,99.0071,VALID,0,VALID,18.9912,VALID,141,VALID,0,
2000-12-10, 01:54:00,VALID,915.919,VALID,0,VALID,99.0491,VALID,0,VALID,19.056,VALID,151,VALID,0,
2000-12-10, 01:55:00,VALID,915.916,VALID,0,VALID,99.0542,VALID,0,VALID,19.0848,VALID,177,VALID,0,
2000-12-10, 01:56:00,VALID,915.899,VALID,0,VALID,99.044,VALID,0,VALID,19.1271,VALID,177,VALID,0,
2000-12-10, 01:57:00,VALID,915.896,VALID,0,VALID,99.0262,VALID,0,VALID,19.1303,VALID,177,VALID,0,
2000-12-10, 01:58:00,VALID,915.892,VALID,0,VALID,99.0109,VALID,0,VALID,19.1229,VALID,177,VALID,0,
2000-12-10, 01:59:00,VALID,915.904,VALID,0,VALID,99.0224,VALID,0,VALID,19.1365,VALID,177,VALID,0,
2000-12-10, 02:00:00,VALID,915.907,VALID,0,VALID,99.0389,VALID,0,VALID,19.1395,VALID,177,VALID,0,
2000-12-10, 02:01:00,VALID,915.913,VALID,0,VALID,99.03,VALID,0,VALID,19.1363,VALID,184,VALID,0,
2000-12-10, 02:02:00,VALID,915.914,VALID,0,VALID,99.0644,VALID,0,VALID,19.1492,VALID,211,VALID,0,
2000-12-10, 02:03:00,VALID,915.92,VALID,0,VALID,99.0847,VALID,0,VALID,19.1716,VALID,222,VALID,0,
2000-12-10, 02:04:00,VALID,915.921,VALID,0,VALID,99.1025,VALID,0,VALID,19.1912,VALID,229,VALID,0,
2000-12-10, 02:05:00,VALID,915.91,VALID,0,VALID,99.1165,VALID,0,VALID,19.2138,VALID,234,VALID,0.120117,
2000-12-10, 02:06:00,VALID,915.902,VALID,0,VALID,99.1381,VALID,-0.0339617,VALID,19.2362,VALID,229,VALID,0.540665,
2000-12-10, 02:07:00,VALID,915.916,VALID,0,VALID,99.1356,VALID,0,VALID,19.2558,VALID,227,VALID,0.541797,
2000-12-10, 02:08:00,VALID,915.917,VALID,0,VALID,99.1305,VALID,-0.0169808,VALID,19.2591,VALID,233,VALID,0.457854,
2000-12-10, 02:09:00,VALID,915.927,VALID,0,VALID,99.1305,VALID,0,VALID,19.2524,VALID,239,VALID,0.533398,
2000-12-10, 02:10:00,VALID,915.932,VALID,0,VALID,99.1267,VALID,-0.0169808,VALID,19.2457,VALID,247,VALID,0.407853,
2000-12-10, 02:11:00,VALID,915.913,VALID,0,VALID,99.1203,VALID,-0.0169808,VALID,19.233,VALID,246,VALID,0.422656,
2000-12-10, 02:12:00,VALID,915.903,VALID,0,VALID,99.1076,VALID,0,VALID,19.2238,VALID,244,VALID,0.317845,
2000-12-10, 02:13:00,VALID,915.894,VALID,0,VALID,99.1114,VALID,-0.0339617,VALID,19.2238,VALID,241,VALID,0.046875,
2000-12-10, 02:14:00,VALID,915.891,VALID,0,VALID,99.119,VALID,0,VALID,19.2138,VALID,234,VALID,0,
2000-12-10, 02:15:00,VALID,915.883,VALID,0,VALID,99.1254,VALID,0.0339617,VALID,19.2074,VALID,233,VALID,0,
2000-12-10, 02:16:00,VALID,915.886,VALID,0,VALID,99.1101,VALID,-0.0169808,VALID,19.2106,VALID,233,VALID,0,
2000-12-10, 02:17:00,VALID,915.875,VALID,0,VALID,99.1025,VALID,-0.0169808,VALID,19.1982,VALID,233,VALID,0,
2000-12-10, 02:18:00,VALID,915.853,VALID,0,VALID,99.1025,VALID,-0.0339617,VALID,19.185,VALID,233,VALID,0,
2000-12-10, 02:19:00,VALID,915.838,VALID,0,VALID,99.0949,VALID,0,VALID,19.1723,VALID,229,VALID,0,
2000-12-10, 02:20:00,VALID,915.817,VALID,0,VALID,99.0936,VALID,0,VALID,19.1522,VALID,226,VALID,0,
2000-12-10, 02:21:00,VALID,915.819,VALID,0,VALID,99.0872,VALID,0,VALID,19.1229,VALID,226,VALID,0,
2000-12-10, 02:22:00,VALID,915.811,VALID,0,VALID,99.0936,VALID,0,VALID,19.1003,VALID,226,VALID,0,
2000-12-10, 02:23:00,VALID,915.803,VALID,0,VALID,99.0669,VALID,0,VALID,19.0521,VALID,226,VALID,0,
2000-12-10, 02:24:00,VALID,915.786,VALID,0,VALID,99.0071,VALID,0,VALID,18.9847,VALID,226,VALID,0,
2000-12-10, 02:25:00,VALID,915.764,VALID,0,VALID,98.9779,VALID,0,VALID,18.9104,VALID,179,VALID,0,
2000-12-10, 02:26:00,VALID,915.765,VALID,0,VALID,99.0338,VALID,0,VALID,18.9094,VALID,159,VALID,0,
2000-12-10, 02:27:00,VALID,915.764,VALID,0,VALID,99.0936,VALID,0,VALID,18.9261,VALID,157,VALID,0,
2000-12-10, 02:28:00,VALID,915.751,VALID,0,VALID,99.1114,VALID,0,VALID,18.9358,VALID,158,VALID,0,
2000-12-10, 02:29:00,VALID,915.742,VALID,0,VALID,99.1139,VALID,0,VALID,18.9194,VALID,158,VALID,0,
2000-12-10, 02:30:00,VALID,915.742,VALID,0,VALID,99.119,VALID,0,VALID,18.9196,VALID,158,VALID,0,
2000-12-10, 02:31:00,VALID,915.746,VALID,0,VALID,99.1178,VALID,0,VALID,18.9002,VALID,159,VALID,0,
2000-12-10, 02:32:00,VALID,915.75,VALID,0,VALID,99.1228,VALID,0,VALID,18.8746,VALID,159,VALID,0,
2000-12-10, 02:33:00,VALID,915.751,VALID,0,VALID,99.1305,VALID,-0.0169808,VALID,18.8843,VALID,166,VALID,0,
2000-12-10, 02:34:00,VALID,915.749,VALID,0,VALID,99.1559,VALID,-0.0339617,VALID,18.8846,VALID,180,VALID,0,
2000-12-10, 02:35:00,VALID,915.738,VALID,0,VALID,99.1724,VALID,-0.0169808,VALID,18.8945,VALID,189,VALID,0,
2000-12-10, 02:36:00,VALID,915.727,VALID,0,VALID,99.1953,VALID,-0.0169808,VALID,18.9139,VALID,191,VALID,0,
2000-12-10, 02:37:00,VALID,915.735,VALID,0,VALID,99.2195,VALID,0,VALID,18.933,VALID,200,VALID,0,
2000-12-10, 02:38:00,VALID,915.715,VALID,0,VALID,99.2258,VALID,0,VALID,18.9295,VALID,190,VALID,0,
2000-12-10, 02:39:00,VALID,915.699,VALID,0,VALID,99.2169,VALID,0,VALID,18.9362,VALID,186,VALID,0,
2000-12-10, 02:40:00,VALID,915.685,VALID,0,VALID,99.2093,VALID,-0.0339617,VALID,18.9365,VALID,184,VALID,0,
2000-12-10, 02:41:00,VALID,915.671,VALID,0,VALID,99.2233,VALID,0,VALID,18.9295,VALID,184,VALID,0,
2000-12-10, 02:42:00,VALID,915.654,VALID,0,VALID,99.2335,VALID,-0.0339617,VALID,18.9429,VALID,184,VALID,0,
2000-12-10, 02:43:00,VALID,915.653,VALID,0,VALID,99.2449,VALID,-0.0169808,VALID,18.9355,VALID,184,VALID,0,
2000-12-10, 02:44:00,VALID,915.645,VALID,0,VALID,99.2602,VALID,-0.0169808,VALID,18.9425,VALID,184,VALID,0,
2000-12-10, 02:45:00,VALID,915.646,VALID,0,VALID,99.2627,VALID,-0.0169808,VALID,18.9519,VALID,184,VALID,0,
2000-12-10, 02:46:00,VALID,915.64,VALID,0,VALID,99.2513,VALID,0,VALID,18.9656,VALID,184,VALID,0,
2000-12-10, 02:47:00,VALID,915.627,VALID,0,VALID,99.2462,VALID,-0.0339617,VALID,18.9392,VALID,184,VALID,0,
2000-12-10, 02:48:00,VALID,915.608,VALID,0,VALID,99.2449,VALID,-0.0339617,VALID,18.9399,VALID,184,VALID,0,
2000-12-10, 02:49:00,VALID,915.611,VALID,0,VALID,99.2208,VALID,-0.0679233,VALID,18.9176,VALID,184,VALID,0,
2000-12-10, 02:50:00,VALID,915.622,VALID,0,VALID,99.2284,VALID,-0.118866,VALID,18.9215,VALID,184,VALID,0,
2000-12-10, 02:51:00,VALID,915.596,VALID,0,VALID,99.2411,VALID,-0.101885,VALID,18.9116,VALID,177,VALID,0,
2000-12-10, 02:52:00,VALID,915.613,VALID,0,VALID,99.2437,VALID,-0.101885,VALID,18.9121,VALID,169,VALID,0,
2000-12-10, 02:53:00,VALID,915.617,VALID,0,VALID,99.2449,VALID,-0.0849042,VALID,18.9114,VALID,161,VALID,0,
2000-12-10, 02:54:00,VALID,915.602,VALID,0,VALID,99.2576,VALID,-0.101885,VALID,18.9049,VALID,158,VALID,0.29387,
2000-12-10, 02:55:00,VALID,915.597,VALID,0,VALID,99.236,VALID,-0.0849042,VALID,18.8989,VALID,152,VALID,0.563281,
2000-12-10, 02:56:00,VALID,915.576,VALID,0,VALID,99.2233,VALID,-0.101885,VALID,18.8703,VALID,158,VALID,0.484169,
2000-12-10, 02:57:00,VALID,915.564,VALID,0,VALID,99.2246,VALID,-0.0849042,VALID,18.8539,VALID,166,VALID,0.505078,
2000-12-10, 02:58:00,VALID,915.547,VALID,0,VALID,99.2437,VALID,-0.101885,VALID,18.8442,VALID,168,VALID,0.643029,
2000-12-10, 02:59:00,VALID,915.52,VALID,0,VALID,99.2691,VALID,-0.101885,VALID,18.8341,VALID,173,VALID,0.57832,
2000-12-10, 03:00:00,VALID,915.518,VALID,0,VALID,99.2589,VALID,-0.101885,VALID,18.8341,VALID,175,VALID,0.481291,
2000-12-10, 03:01:00,VALID,915.522,VALID,0,VALID,99.2754,VALID,-0.101885,VALID,18.8315,VALID,174,VALID,0.511719,
2000-12-10, 03:02:00,VALID,915.514,VALID,0,VALID,99.2793,VALID,-0.101885,VALID,18.8246,VALID,174,VALID,0.391627,
2000-12-10, 03:03:00,VALID,915.498,VALID,0,VALID,99.292,VALID,-0.101885,VALID,18.8147,VALID,174,VALID,0.175391,
2000-12-10, 03:04:00,VALID,915.511,VALID,0,VALID,99.278,VALID,-0.0169808,VALID,18.8075,VALID,174,VALID,0,
2000-12-10, 03:05:00,VALID,915.499,VALID,0,VALID,99.2856,VALID,0,VALID,18.7842,VALID,174,VALID,0,
2000-12-10, 03:06:00,VALID,915.493,VALID,0,VALID,99.2996,VALID,0,VALID,18.7872,VALID,177,VALID,0,
2000-12-10, 03:07:00,VALID,915.492,VALID,0,VALID,99.3149,VALID,0.0169808,VALID,18.7943,VALID,186,VALID,0,
2000-12-10, 03:08:00,VALID,915.497,VALID,0,VALID,99.311,VALID,0,VALID,18.7909,VALID,186,VALID,0,
2000-12-10, 03:09:00,VALID,915.499,VALID,0,VALID,99.3199,VALID,0.0169808,VALID,18.7842,VALID,186,VALID,0,
2000-12-10, 03:10:00,VALID,915.504,VALID,0,VALID,99.3377,VALID,0,VALID,18.7939,VALID,187,VALID,0,
2000-12-10, 03:11:00,VALID,915.491,VALID,0,VALID,99.3454,VALID,0,VALID,18.8103,VALID,188,VALID,0,
2000-12-10, 03:12:00,VALID,915.477,VALID,0,VALID,99.3594,VALID,0.0339617,VALID,18.8266,VALID,196,VALID,0,
2000-12-10, 03:13:00,VALID,915.479,VALID,0,VALID,99.3772,VALID,0.0169808,VALID,18.8396,VALID,203,VALID,0,
2000-12-10, 03:14:00,VALID,915.483,VALID,0,VALID,99.3886,VALID,0,VALID,18.8552,VALID,202,VALID,0,
2000-12-10, 03:15:00,VALID,915.497,VALID,0,VALID,99.3988,VALID,0,VALID,18.8679,VALID,202,VALID,0,
2000-12-10, 03:16:00,VALID,915.48,VALID,0,VALID,99.3912,VALID,0.0169808,VALID,18.8841,VALID,196,VALID,0,
2000-12-10, 03:17:00,VALID,915.461,VALID,0,VALID,99.395,VALID,0,VALID,18.9042,VALID,172,VALID,0,
2000-12-10, 03:18:00,VALID,915.455,VALID,0,VALID,99.4026,VALID,0,VALID,18.894,VALID,172,VALID,0,
2000-12-10, 03:19:00,VALID,915.455,VALID,0,VALID,99.3912,VALID,0,VALID,18.9079,VALID,175,VALID,0,
2000-12-10, 03:20:00,VALID,915.459,VALID,0,VALID,99.3823,VALID,0.0169808,VALID,18.8873,VALID,182,VALID,0,
2000-12-10, 03:21:00,VALID,915.477,VALID,0,VALID,99.4013,VALID,0,VALID,18.9012,VALID,197,VALID,0,
2000-12-10, 03:22:00,VALID,915.501,VALID,0,VALID,99.3975,VALID,-0.0169808,VALID,18.9072,VALID,197,VALID,0,
2000-12-10, 03:23:00,VALID,915.504,VALID,0,VALID,99.3861,VALID,0.0169808,VALID,18.8975,VALID,196,VALID,0,
2000-12-10, 03:24:00,VALID,915.5,VALID,0,VALID,99.3721,VALID,0,VALID,18.8716,VALID,196,VALID,0,
2000-12-10, 03:25:00,VALID,915.501,VALID,0,VALID,99.3543,VALID,0,VALID,18.8326,VALID,196,VALID,0,
2000-12-10, 03:26:00,VALID,915.502,VALID,0,VALID,99.3466,VALID,0.0339617,VALID,18.7835,VALID,196,VALID,0,
2000-12-10, 03:27:00,VALID,915.482,VALID,0,VALID,99.3136,VALID,0,VALID,18.7034,VALID,196,VALID,0,
2000-12-10, 03:28:00,VALID,915.462,VALID,0,VALID,99.3161,VALID,0.0169808,VALID,18.6644,VALID,196,VALID,0,
2000-12-10, 03:29:00,VALID,915.447,VALID,0,VALID,99.3352,VALID,0.0169808,VALID,18.6679,VALID,196,VALID,0,
2000-12-10, 03:30:00,VALID,915.448,VALID,0,VALID,99.3543,VALID,0,VALID,18.655,VALID,196,VALID,0,
2000-12-10, 03:31:00,VALID,915.456,VALID,0,VALID,99.3746,VALID,0.0169808,VALID,18.6517,VALID,195,VALID,0,
2000-12-10, 03:32:00,VALID,915.476,VALID,0,VALID,99.367,VALID,0,VALID,18.6487,VALID,195,VALID,0,
2000-12-10, 03:33:00,VALID,915.487,VALID,0,VALID,99.3683,VALID,0.0339617,VALID,18.6517,VALID,195,VALID,0,
2000-12-10, 03:34:00,VALID,915.487,VALID,0,VALID,99.381,VALID,-0.0679233,VALID,18.6494,VALID,195,VALID,0,
2000-12-10, 03:35:00,VALID,915.483,VALID,0,VALID,99.3568,VALID,-0.0849042,VALID,18.6241,VALID,195,VALID,0,
2000-12-10, 03:36:00,VALID,915.461,VALID,0,VALID,99.3365,VALID,-0.101885,VALID,18.5662,VALID,195,VALID,0,
2000-12-10, 03:37:00,VALID,915.459,VALID,0,VALID,99.3085,VALID,-0.0849042,VALID,18.4981,VALID,193,VALID,0,
2000-12-10, 03:38:00,VALID,915.469,VALID,0,VALID,99.2602,VALID,-0.0849042,VALID,18.401,VALID,173,VALID,0,
2000-12-10, 03:39:00,VALID,915.479,VALID,0,VALID,99.2398,VALID,-0.101885,VALID,18.3301,VALID,173,VALID,0,
2000-12-10, 03:40:00,VALID,915.496,VALID,0,VALID,99.2271,VALID,-0.101885,VALID,18.2722,VALID,173,VALID,0,
2000-12-10, 03:41:00,VALID,915.495,VALID,0,VALID,99.2411,VALID,-0.101885,VALID,18.2201,VALID,169,VALID,0,
2000-12-10, 03:42:00,VALID,915.5,VALID,0,VALID,99.3225,VALID,-0.0679233,VALID,18.2501,VALID,155,VALID,0,
2000-12-10, 03:43:00,VALID,915.519,VALID,0,VALID,99.3873,VALID,-0.101885,VALID,18.2627,VALID,155,VALID,0,
2000-12-10, 03:44:00,VALID,915.522,VALID,0,VALID,99.4306,VALID,-0.101885,VALID,18.2983,VALID,176,VALID,0,
2000-12-10, 03:45:00,VALID,915.519,VALID,0,VALID,99.4496,VALID,-0.101885,VALID,18.3271,VALID,194,VALID,0,